period_start,C,m1,H,J0,J1,J2,J3,J4,J5,JA,JB,JC,JD,JJ,JK,JN,#
2015-02-14 00:04:25,0.24,1.81,0.00,24.35,27.30,30.21,4.75,27.53,1008.89,2033.00,2741.07,2809.40,3043.82,350.40,343.61,5.26,0000 0000 0000 0000 000000
2015-02-14 00:09:26,0.24,1.82,0.00,24.37,27.30,30.22,4.72,27.72,1009.04,2033.00,2738.59,2807.68,3041.88,350.09,343.82,5.29,0000 0000 0000 0000 000000
2015-02-14 00:14:28,0.25,1.83,0.00,24.36,27.30,30.23,4.76,27.53,1009.04,2033.00,2736.13,2805.81,3039.92,350.33,343.77,5.32,0000 0000 0000 0000 000000
2015-02-14 00:19:29,0.24,1.83,0.00,24.31,27.30,30.25,4.70,27.49,1008.87,2033.00,2733.66,2804.07,3037.87,350.10,343.62,5.35,0000 0000 0000 0000 000000
2015-02-14 00:24:30,0.24,1.84,0.00,24.33,27.30,30.26,4.69,27.55,1008.83,2033.00,2731.18,2802.31,3035.87,349.72,343.20,5.38,0000 0000 0000 0000 000000
2015-02-14 00:29:31,0.25,1.85,0.00,24.34,27.30,30.26,4.70,27.40,1008.85,2033.00,2728.75,2800.56,3033.98,349.67,343.15,5.41,0000 0000 0000 0000 000000
2015-02-14 00:34:33,0.25,1.85,0.00,24.33,27.30,30.26,4.75,27.56,1008.85,2033.00,2726.33,2798.82,3032.06,350.54,344.19,5.44,0000 0000 0000 0000 000000
2015-02-14 00:39:34,0.24,1.86,0.00,24.32,27.30,30.27,4.73,27.49,1008.82,2032.99,2723.90,2797.05,3030.09,349.88,343.26,5.47,0000 0000 0000 0000 000000
2015-02-14 00:44:35,0.20,1.87,0.00,24.38,27.30,30.25,4.73,27.52,1008.83,2032.99,2721.62,2795.46,3028.30,349.97,343.40,5.50,0000 0000 0000 0000 000000
2015-02-14 00:49:36,0.23,1.88,0.00,24.35,27.30,30.26,4.65,27.41,1009.08,2032.99,2719.38,2793.85,3026.50,349.39,343.09,5.53,0000 0000 0000 0000 000000
2015-02-14 00:54:37,0.23,1.88,0.00,24.34,27.30,30.26,4.74,27.43,1009.03,2032.99,2717.07,2792.19,3024.68,349.56,343.27,5.56,0000 0000 0000 0000 000000
2015-02-14 00:59:39,0.23,1.89,0.00,24.37,27.30,30.25,4.72,27.46,1008.83,2032.98,2714.71,2790.49,3022.77,350.21,343.64,5.59,0000 0000 0000 0000 000000
2015-02-14 01:04:40,0.24,1.90,0.00,24.38,27.32,30.25,4.75,27.52,1008.81,2032.96,2712.27,2788.76,3020.80,349.87,343.39,5.61,0000 0000 0000 0000 000000
2015-02-14 01:09:41,0.23,1.90,0.00,24.35,27.32,30.25,4.72,27.57,1008.79,2032.98,2709.98,2787.03,3018.92,349.82,343.48,5.64,0000 0000 0000 0000 000000
2015-02-14 01:14:43,0.23,1.91,0.00,24.35,27.32,30.24,4.73,27.43,1008.80,2032.98,2707.62,2785.37,3017.06,350.01,343.46,5.67,0000 0000 0000 0000 000000
2015-02-14 01:19:44,0.23,1.92,0.00,24.34,27.32,30.25,4.74,27.54,1008.78,2032.96,2705.32,2783.70,3015.23,349.96,343.43,5.70,0000 0000 0000 0000 000000
2015-02-14 01:24:45,0.21,1.92,0.00,24.31,27.35,30.25,4.73,27.59,1008.70,2032.94,2703.16,2782.03,3013.50,350.22,343.70,5.73,0000 0000 0000 0000 000000
2015-02-14 01:29:46,0.21,1.93,0.00,24.32,27.36,30.23,4.71,27.54,1008.45,2032.82,2701.00,2780.47,3011.70,350.02,343.45,5.76,0000 0000 0000 0000 000000
2015-02-14 01:34:48,0.17,1.94,0.00,24.27,27.37,30.18,4.68,27.44,1008.49,2032.70,2698.81,2778.93,3009.99,349.61,342.87,5.79,0000 0000 0000 0000 000000
2015-02-14 01:39:49,0.14,1.94,0.00,24.02,27.37,30.16,4.64,27.48,1008.70,2032.26,2696.62,2777.39,3008.27,349.41,343.22,5.82,0000 0000 0000 0000 000000
2015-02-14 01:44:50,0.19,1.95,0.00,23.70,27.37,30.33,4.76,27.48,1008.61,2032.16,2694.55,2775.85,3006.75,349.99,344.21,5.85,0000 0000 0000 0000 000000
2015-02-14 01:49:52,0.19,1.95,0.00,23.65,27.37,30.36,4.77,27.52,1008.40,2032.13,2692.62,2774.48,3005.28,349.90,343.96,5.88,0000 0000 0000 0000 000000
2015-02-14 01:54:53,0.18,1.96,0.00,23.85,27.37,30.31,4.66,27.62,1008.34,2032.16,2690.74,2773.14,3003.73,349.76,343.66,5.91,0000 0000 0000 0000 000000
2015-02-14 01:59:54,0.19,1.96,0.00,24.00,27.37,30.24,4.83,27.68,1008.32,2032.05,2688.85,2771.70,3002.22,350.58,344.13,5.94,0000 0000 0000 0000 000000
2015-02-14 02:04:56,0.18,1.97,0.00,24.23,27.37,30.25,4.69,27.68,1008.32,2032.06,2687.11,2770.41,3000.72,350.10,343.63,5.97,0000 0000 0000 0000 000000
2015-02-14 02:09:57,0.18,1.97,0.00,24.21,27.37,30.17,4.70,27.63,1008.32,2032.01,2685.29,2769.01,2999.29,350.35,343.78,6.00,0000 0000 0000 0000 000000
2015-02-14 02:14:59,0.20,1.98,0.00,23.96,27.39,30.24,4.68,27.60,1008.32,2032.02,2683.41,2767.71,2997.72,349.91,343.65,6.02,0000 0000 0000 0000 000000
2015-02-14 02:20:00,0.17,1.98,0.00,23.68,27.40,30.35,4.70,27.68,1008.30,2032.00,2681.65,2766.45,2996.39,349.85,343.95,6.05,0000 0000 0000 0000 000000
2015-02-14 02:25:01,0.15,1.99,0.00,23.68,27.40,30.37,4.71,27.58,1008.25,2032.00,2679.98,2765.32,2995.11,350.07,343.88,6.08,0000 0000 0000 0000 000000
2015-02-14 02:30:03,0.15,1.99,0.00,23.84,27.40,30.28,4.73,27.67,1008.22,2032.00,2678.42,2764.20,2993.84,350.15,343.94,6.11,0000 0000 0000 0000 000000
2015-02-14 02:35:04,0.15,2.00,0.00,24.03,27.40,30.22,4.72,27.65,1007.98,2032.00,2676.91,2763.11,2992.64,349.96,343.47,6.14,0000 0000 0000 0000 000000
2015-02-14 02:40:05,0.18,2.00,0.00,24.21,27.40,30.08,4.61,27.60,1007.91,2032.01,2675.31,2761.84,2991.34,349.25,342.60,6.17,0000 0000 0000 0000 000000
2015-02-14 02:45:07,0.15,2.01,0.00,24.13,27.41,30.13,4.71,27.52,1007.88,2032.00,2673.71,2760.75,2990.00,350.03,343.64,6.20,0000 0000 0000 0000 000000
2015-02-14 02:50:08,0.15,2.01,0.00,23.81,27.42,30.24,4.75,27.68,1008.04,2032.01,2672.19,2759.65,2988.85,350.25,343.98,6.23,0000 0000 0000 0000 000000
2015-02-14 02:55:09,0.17,2.02,0.00,23.67,27.42,30.37,4.78,27.58,1008.05,2032.00,2670.58,2758.54,2987.64,350.03,343.99,6.26,0000 0000 0000 0000 000000
2015-02-14 03:00:11,0.13,2.02,0.00,23.78,27.42,30.35,4.68,27.64,1007.98,2032.00,2669.15,2757.54,2986.55,349.93,343.81,6.29,0000 0000 0000 0000 000000
2015-02-14 03:05:12,0.14,2.03,0.00,23.99,27.42,30.25,4.75,27.53,1007.90,2032.00,2667.84,2756.56,2985.47,350.57,344.17,6.32,0000 0000 0000 0000 000000
2015-02-14 03:10:13,0.14,2.03,0.00,24.21,27.42,30.16,4.68,27.38,1007.87,2032.00,2666.52,2755.59,2984.37,350.37,343.65,6.35,0000 0000 0000 0000 000000
2015-02-14 03:15:14,0.13,2.03,0.00,24.29,27.44,30.16,4.73,27.52,1007.84,2032.00,2665.20,2754.62,2983.34,350.01,343.05,6.38,0000 0000 0000 0000 000000
2015-02-14 03:20:16,0.13,2.04,0.00,24.31,27.45,30.27,4.72,27.43,1007.84,2032.00,2663.86,2753.71,2982.31,350.10,343.00,6.41,0000 0000 0000 0000 000000
2015-02-14 03:25:17,0.14,2.04,0.00,24.03,27.45,30.35,4.79,27.52,1007.84,2032.00,2662.50,2752.73,2981.21,350.22,343.85,6.43,0000 0000 0000 0000 000000
2015-02-14 03:30:18,0.12,2.05,0.00,23.74,27.45,30.43,4.70,27.42,1007.84,2032.00,2661.16,2751.78,2980.13,350.08,343.88,6.46,0000 0000 0000 0000 000000
2015-02-14 03:35:20,0.11,2.05,0.00,23.72,27.45,30.45,4.69,27.41,1007.84,2032.00,2659.90,2751.01,2979.17,349.71,343.42,6.49,0000 0000 0000 0000 000000
2015-02-14 03:40:21,0.14,2.05,0.00,23.74,27.45,30.39,4.70,27.50,1007.83,2032.00,2658.64,2750.22,2978.30,349.62,343.51,6.52,0000 0000 0000 0000 000000
2015-02-14 03:45:22,0.11,2.06,0.00,23.69,27.45,30.34,4.66,27.28,1007.83,2032.00,2657.61,2749.47,2977.49,350.48,344.33,6.55,0000 0000 0000 0000 000000
2015-02-14 03:50:23,0.08,2.06,0.00,23.70,27.44,30.28,4.73,27.48,1007.82,2032.00,2656.58,2748.81,2976.71,349.47,343.47,6.58,0000 0000 0000 0000 000000
2015-02-14 03:55:25,0.07,2.06,0.00,23.70,27.42,30.23,4.70,27.56,1007.69,2032.00,2655.72,2748.07,2976.02,349.78,343.62,6.61,0000 0000 0000 0000 000000
2015-02-14 04:00:26,0.10,2.06,0.00,23.68,27.42,30.21,4.69,27.51,1007.44,2032.00,2654.79,2747.63,2975.32,349.73,343.51,6.64,0000 0000 0000 0000 000000
2015-02-14 04:05:27,0.07,2.07,0.00,23.84,27.41,30.25,4.74,27.53,1007.36,2032.00,2653.93,2746.98,2974.65,350.12,343.73,6.67,0000 0000 0000 0000 000000
2015-02-14 04:10:29,0.09,2.07,0.00,24.10,27.41,30.15,4.74,27.48,1007.34,2032.00,2653.04,2746.16,2973.94,350.34,343.53,6.70,0000 0000 0000 0000 000000
2015-02-14 04:15:30,0.10,2.07,0.00,24.31,27.42,30.05,4.67,27.40,1007.34,2032.00,2652.11,2745.63,2973.10,350.37,343.42,6.73,0000 0000 0000 0000 000000
2015-02-14 04:20:32,0.08,2.08,0.00,24.37,27.42,30.10,4.69,27.40,1007.34,2032.00,2651.21,2744.98,2972.33,349.63,342.70,6.76,0000 0000 0000 0000 000000
2015-02-14 04:25:33,0.11,2.08,0.00,24.21,27.42,30.18,4.71,27.52,1007.34,2032.00,2650.20,2744.14,2971.67,350.03,343.14,6.79,0000 0000 0000 0000 000000
2015-02-14 04:30:34,0.10,2.08,0.00,23.88,27.45,30.30,4.74,27.48,1007.34,2032.00,2649.15,2743.50,2970.90,350.03,343.54,6.82,0000 0000 0000 0000 000000
2015-02-14 04:35:35,0.09,2.08,0.00,23.61,27.45,30.46,4.69,27.57,1007.34,2031.99,2648.11,2742.82,2970.06,350.30,344.13,6.85,0000 0000 0000 0000 000000
2015-02-14 04:40:36,0.11,2.09,0.00,23.64,27.44,30.39,4.73,27.59,1007.34,2031.99,2647.13,2742.04,2969.25,350.70,344.30,6.87,0000 0000 0000 0000 000000
2015-02-14 04:45:38,0.08,2.09,0.00,23.77,27.44,30.15,4.70,27.52,1007.34,2031.99,2646.31,2741.55,2968.76,350.55,344.08,6.90,0000 0000 0000 0000 000000
2015-02-14 04:50:39,0.08,2.09,0.00,23.81,27.45,29.92,4.72,27.49,1007.34,2031.99,2645.48,2740.86,2967.95,350.24,343.80,6.93,0000 0000 0000 0000 000000
2015-02-14 04:55:40,0.11,2.10,0.00,23.77,27.46,29.84,4.65,27.52,1007.34,2031.99,2644.56,2740.06,2967.08,349.76,343.29,6.96,0000 0000 0000 0000 000000
2015-02-14 05:00:42,0.11,2.10,0.00,23.76,27.48,29.87,4.73,27.48,1007.34,2031.99,2643.66,2739.34,2966.27,350.33,344.13,6.99,0000 0000 0000 0000 000000
2015-02-14 05:05:43,0.12,2.10,0.00,23.75,27.52,29.95,4.78,27.73,1007.34,2031.95,2642.53,2738.48,2965.36,350.49,344.12,7.02,0000 0000 0000 0000 000000
2015-02-14 05:10:44,0.04,2.10,0.00,23.75,27.56,30.03,4.81,27.56,1007.34,2031.64,2641.45,2737.53,2964.33,350.75,344.34,7.05,0000 0000 0000 0000 000000
2015-02-14 05:15:46,0.06,2.11,0.00,23.78,27.61,30.13,4.67,27.62,1007.33,2031.10,2640.28,2736.52,2963.22,350.01,343.84,7.08,0000 0000 0000 0000 000000
2015-02-14 05:20:47,0.12,2.11,0.00,23.88,27.66,30.25,4.74,27.50,1007.09,2031.00,2638.99,2735.55,2962.05,350.16,343.45,7.11,0000 0000 0000 0000 000000
2015-02-14 05:25:48,0.14,2.11,0.00,24.06,27.72,30.37,4.73,27.54,1006.88,2030.99,2637.73,2734.54,2960.90,350.29,343.41,7.14,0000 0000 0000 0000 000000
2015-02-14 05:30:49,0.12,2.12,0.00,24.26,27.78,30.47,4.69,27.43,1006.85,2030.92,2636.59,2733.57,2959.80,350.13,342.98,7.17,0000 0000 0000 0000 000000
2015-02-14 05:35:51,0.02,2.12,0.00,24.16,27.84,30.59,4.75,27.38,1006.85,2030.29,2635.22,2732.50,2958.68,350.38,343.38,7.20,0000 0000 0000 0000 000000
2015-02-14 05:40:52,0.14,2.12,0.00,24.11,27.89,30.66,4.67,27.43,1006.85,2030.03,2633.81,2731.43,2957.50,349.71,342.68,7.23,0000 0000 0000 0000 000000
2015-02-14 05:45:53,0.12,2.12,0.00,24.09,27.94,30.70,4.69,27.32,1006.84,2030.00,2632.65,2730.49,2956.47,350.03,343.07,7.26,0000 0000 0000 0000 000000
2015-02-14 05:50:55,0.13,2.13,0.00,24.06,27.99,30.71,4.72,27.36,1006.81,2030.00,2631.51,2729.56,2955.41,350.21,343.28,7.28,0000 0000 0000 0000 000000
2015-02-14 05:55:56,0.10,2.13,0.00,23.99,28.02,30.71,4.68,27.26,1006.83,2029.99,2630.40,2728.73,2954.48,350.17,343.33,7.31,0000 0000 0000 0000 000000
2015-02-14 06:00:57,0.10,2.14,0.00,23.94,28.04,30.70,4.70,27.32,1006.79,2029.98,2629.30,2727.91,2953.59,350.02,343.13,7.34,0000 0000 0000 0000 000000
2015-02-14 06:05:58,0.11,2.14,0.00,23.96,28.05,30.75,4.77,27.38,1006.51,2029.97,2628.13,2727.06,2952.73,350.24,343.35,7.37,0000 0000 0000 0000 000000
2015-02-14 06:11:00,0.11,2.14,0.00,24.04,28.07,30.74,4.65,27.24,1006.38,2029.95,2627.05,2726.21,2951.80,349.61,342.39,7.40,0000 0000 0000 0000 000000
2015-02-14 06:16:01,0.11,2.15,0.00,24.05,28.07,30.78,4.71,27.28,1006.37,2029.89,2626.03,2725.41,2950.87,350.04,342.99,7.43,0000 0000 0000 0000 000000
2015-02-14 06:21:02,0.05,2.15,0.00,24.10,28.07,30.78,4.72,27.32,1006.37,2029.70,2625.02,2724.74,2950.00,349.52,342.37,7.46,0000 0000 0000 0000 000000
2015-02-14 06:26:03,0.12,2.15,0.00,24.15,28.06,30.75,4.78,27.32,1006.38,2029.75,2623.96,2724.01,2949.13,350.80,343.44,7.49,0000 0000 0000 0000 000000
2015-02-14 06:31:04,0.14,2.16,0.00,24.19,28.05,30.84,4.74,27.36,1006.37,2029.87,2623.03,2723.21,2948.36,350.14,342.94,7.52,0000 0000 0000 0000 000000
2015-02-14 06:36:05,0.09,2.16,0.00,24.25,28.03,30.80,4.73,27.31,1006.38,2029.83,2622.09,2722.61,2947.67,350.02,342.48,7.55,0000 0000 0000 0000 000000
2015-02-14 06:41:07,0.11,2.16,0.00,24.28,28.02,30.80,4.73,27.42,1006.37,2029.90,2621.04,2721.88,2946.83,349.84,342.66,7.58,0000 0000 0000 0000 000000
2015-02-14 06:46:08,0.10,2.17,0.00,24.30,28.00,30.83,4.69,27.33,1006.36,2029.94,2620.03,2721.08,2946.03,350.36,343.03,7.61,0000 0000 0000 0000 000000
2015-02-14 06:51:09,0.12,2.17,0.00,24.32,27.98,30.81,4.73,27.32,1006.34,2029.96,2619.09,2720.47,2945.22,349.93,342.58,7.64,0000 0000 0000 0000 000000
2015-02-14 06:56:10,0.07,2.17,0.00,24.34,27.96,30.81,4.76,27.44,1006.31,2029.95,2618.15,2719.93,2944.56,350.12,342.81,7.66,0000 0000 0000 0000 000000
2015-02-14 07:01:12,0.10,2.17,0.00,24.39,27.94,30.83,4.72,27.38,1006.09,2029.99,2617.10,2719.12,2943.98,350.32,342.88,7.69,0000 0000 0000 0000 000000
2015-02-14 07:06:13,0.11,2.18,0.00,24.39,27.92,30.78,4.73,27.38,1006.09,2029.99,2616.13,2718.50,2943.17,349.82,342.31,7.72,0000 0000 0000 0000 000000
2015-02-14 07:11:14,0.08,2.18,0.00,24.40,27.90,30.80,4.61,27.32,1006.06,2029.99,2615.18,2717.96,2942.52,349.77,342.16,7.75,0000 0000 0000 0000 000000
2015-02-14 07:16:15,0.09,2.18,0.00,24.43,27.87,30.77,4.78,27.54,1005.92,2029.99,2614.24,2717.17,2941.93,350.06,342.50,7.78,0000 0000 0000 0000 000000
2015-02-14 07:21:16,0.09,2.19,0.00,24.44,27.85,30.74,4.65,27.45,1005.89,2030.00,2613.29,2716.72,2941.13,349.58,342.15,7.81,0000 0000 0000 0000 000000
2015-02-14 07:26:17,0.09,2.19,0.00,24.45,27.83,30.72,4.73,27.44,1005.88,2030.01,2612.34,2716.01,2940.45,350.21,342.48,7.84,0000 0000 0000 0000 000000
2015-02-14 07:31:19,0.10,2.19,0.00,24.44,27.81,30.69,4.74,27.44,1005.90,2030.01,2611.30,2715.24,2939.85,350.01,342.27,7.87,0000 0000 0000 0000 000000
2015-02-14 07:36:20,0.08,2.19,0.00,24.45,27.78,30.66,4.71,27.52,1005.89,2030.06,2610.45,2714.90,2939.05,350.49,342.79,7.90,0000 0000 0000 0000 000000
2015-02-14 07:41:21,0.12,2.20,0.00,24.44,27.76,30.64,4.74,27.43,1005.90,2030.13,2609.38,2714.10,2938.35,350.29,342.58,7.93,0000 0000 0000 0000 000000
2015-02-14 07:46:23,0.17,2.20,0.00,24.43,27.74,30.56,4.77,27.49,1005.88,2030.41,2608.51,2713.55,2937.75,350.34,342.65,7.96,0000 0000 0000 0000 000000
2015-02-14 07:51:25,0.11,2.21,0.00,24.39,27.72,30.51,4.71,27.27,1005.87,2030.76,2607.67,2712.99,2937.03,350.25,342.63,7.99,0000 0000 0000 0000 000000
2015-02-14 07:56:26,0.12,2.21,0.00,24.38,27.70,30.51,4.70,27.42,1005.84,2030.91,2606.83,2712.30,2936.33,349.76,342.21,8.02,0000 0000 0000 0000 000000
2015-02-14 08:01:27,0.08,2.21,0.00,24.36,27.68,30.43,4.72,27.35,1005.86,2030.96,2605.89,2711.85,2935.74,350.05,342.34,8.05,0000 0000 0000 0000 000000
2015-02-14 08:06:29,0.10,2.22,0.00,24.34,27.66,30.40,4.67,27.41,1005.74,2030.97,2604.94,2711.05,2934.97,349.45,342.10,8.08,0000 0000 0000 0000 000000
2015-02-14 08:11:30,0.11,2.22,0.00,24.36,27.65,30.39,4.71,27.47,1005.46,2030.99,2604.01,2710.48,2934.14,350.23,342.34,8.10,0000 0000 0000 0000 000000
2015-02-14 08:16:31,0.08,2.22,0.00,24.34,27.62,30.37,4.68,27.50,1005.41,2030.99,2602.99,2709.89,2933.57,349.84,342.16,8.13,0000 0000 0000 0000 000000
2015-02-14 08:21:32,0.10,2.22,0.00,24.28,27.61,30.32,4.71,27.36,1005.39,2030.99,2601.91,2709.07,2932.84,349.96,342.37,8.16,0000 0000 0000 0000 000000
2015-02-14 08:26:34,0.11,2.23,0.00,24.23,27.60,30.28,4.68,27.36,1005.39,2030.99,2600.89,2708.41,2932.04,350.11,342.54,8.19,0000 0000 0000 0000 000000
2015-02-14 08:31:35,0.07,2.23,0.00,24.28,27.58,30.26,4.72,27.41,1005.31,2031.00,2600.00,2707.93,2931.29,350.28,342.64,8.22,0000 0000 0000 0000 000000
2015-02-14 08:36:36,0.11,2.23,0.00,24.24,27.57,30.16,4.64,27.52,1005.35,2031.00,2599.30,2707.13,2930.65,349.75,341.99,8.25,0000 0000 0000 0000 000000
2015-02-14 08:41:37,0.10,2.23,0.00,24.24,27.55,30.17,4.72,27.45,1005.04,2031.00,2598.30,2706.59,2929.92,350.07,342.39,8.28,0000 0000 0000 0000 000000
2015-02-14 08:46:39,0.08,2.24,0.00,24.18,27.54,30.12,4.75,27.48,1004.91,2031.02,2597.30,2705.98,2929.09,350.63,342.72,8.31,0000 0000 0000 0000 000000
2015-02-14 08:51:40,0.12,2.24,0.00,24.19,27.52,30.07,4.72,27.38,1004.91,2031.03,2596.24,2705.20,2928.49,350.51,342.70,8.34,0000 0000 0000 0000 000000
2015-02-14 08:56:41,0.10,2.24,0.00,24.14,27.52,30.01,4.71,27.41,1004.91,2031.12,2595.20,2704.69,2927.87,350.13,342.67,8.37,0000 0000 0000 0000 000000
2015-02-14 09:01:43,0.07,2.25,0.00,24.14,27.50,29.97,4.74,27.36,1004.91,2031.12,2594.38,2704.02,2927.04,350.29,342.53,8.40,0000 0000 0000 0000 000000
2015-02-14 09:06:44,0.12,2.25,0.00,24.09,27.50,29.91,4.64,27.35,1004.90,2031.08,2593.52,2703.26,2926.20,349.81,342.12,8.43,0000 0000 0000 0000 000000
2015-02-14 09:11:46,0.12,2.25,0.00,23.83,27.49,29.99,4.63,27.32,1004.90,2031.14,2592.44,2702.67,2925.55,349.42,342.17,8.46,0000 0000 0000 0000 000000
2015-02-14 09:16:47,0.11,2.26,0.00,23.54,27.47,30.20,4.71,27.52,1004.90,2031.27,2591.35,2701.99,2924.84,350.05,342.80,8.49,0000 0000 0000 0000 000000
2015-02-14 09:21:48,0.12,2.26,0.00,23.52,27.46,30.25,4.77,27.45,1004.88,2031.40,2590.55,2701.27,2924.05,350.64,343.70,8.51,0000 0000 0000 0000 000000
2015-02-14 09:26:49,0.04,2.26,0.00,23.85,27.44,30.25,4.65,27.48,1004.89,2031.33,2589.88,2700.85,2923.36,349.90,342.74,8.54,0000 0000 0000 0000 000000
2015-02-14 09:31:51,0.11,2.27,0.00,24.14,27.42,30.27,4.70,27.45,1004.90,2031.35,2589.04,2700.06,2922.62,349.67,341.86,8.57,0000 0000 0000 0000 000000
2015-02-14 09:36:52,0.15,2.27,0.00,24.22,27.41,30.26,4.70,27.39,1004.90,2031.65,2588.06,2699.56,2921.97,350.22,342.23,8.60,0000 0000 0000 0000 000000
2015-02-14 09:41:53,0.09,2.27,0.00,24.27,27.40,30.25,4.70,27.42,1004.90,2031.73,2587.03,2698.95,2921.14,350.24,342.45,8.63,0000 0000 0000 0000 000000
2015-02-14 09:46:54,0.13,2.28,0.00,24.24,27.40,30.25,4.69,27.45,1004.90,2031.92,2586.27,2698.23,2920.57,349.86,341.99,8.66,0000 0000 0000 0000 000000
2015-02-14 09:51:56,0.09,2.28,0.00,24.22,27.38,30.27,4.70,27.38,1004.90,2031.91,2585.22,2697.65,2919.86,350.39,342.78,8.69,0000 0000 0000 0000 000000
2015-02-14 09:56:57,0.08,2.28,0.00,24.24,27.37,30.26,4.69,27.43,1004.90,2031.93,2584.43,2697.01,2919.04,349.90,342.19,8.72,0000 0000 0000 0000 000000
2015-02-14 10:01:58,0.14,2.29,0.00,24.11,27.37,30.19,4.69,27.46,1004.91,2031.95,2583.18,2696.23,2918.40,350.59,342.98,8.75,0000 0000 0000 0000 000000
2015-02-14 10:07:00,0.08,2.29,0.00,23.80,27.37,30.20,4.69,27.45,1004.90,2031.99,2582.21,2695.72,2917.74,349.44,342.37,8.78,0000 0000 0000 0000 000000
2015-02-14 10:12:01,0.10,2.29,0.00,23.55,27.35,30.32,4.77,27.47,1004.84,2031.99,2581.14,2694.94,2916.92,350.22,343.31,8.81,0000 0000 0000 0000 000000
2015-02-14 10:17:02,0.11,2.30,0.00,23.65,27.35,30.29,4.70,27.42,1004.87,2031.99,2580.04,2694.10,2916.08,350.35,343.12,8.84,0000 0000 0000 0000 000000
2015-02-14 10:22:03,0.08,2.30,0.00,23.98,27.34,30.21,4.73,27.39,1004.51,2031.99,2579.14,2693.75,2915.64,349.60,342.02,8.87,0000 0000 0000 0000 000000
2015-02-14 10:27:04,0.09,2.30,0.00,24.20,27.32,30.22,4.74,27.52,1004.42,2031.99,2578.58,2693.02,2914.77,350.11,342.31,8.90,0000 0000 0000 0000 000000
2015-02-14 10:32:05,0.12,2.31,0.00,24.25,27.32,30.22,4.67,27.40,1004.41,2031.99,2577.32,2692.16,2913.97,349.75,341.81,8.92,0000 0000 0000 0000 000000
2015-02-14 10:37:06,0.12,2.31,0.00,24.22,27.32,30.20,4.69,27.38,1004.39,2031.99,2576.29,2691.49,2913.10,349.32,341.52,8.95,0000 0000 0000 0000 000000
2015-02-14 10:42:08,0.11,2.31,0.00,24.26,27.31,30.22,4.73,27.38,1004.31,2031.99,2575.06,2690.69,2912.17,349.99,342.05,8.98,0000 0000 0000 0000 000000
2015-02-14 10:47:09,0.09,2.31,0.00,24.19,27.30,30.24,4.72,27.33,1004.34,2031.99,2574.18,2690.01,2911.37,350.29,342.45,9.01,0000 0000 0000 0000 000000
2015-02-14 10:52:11,0.13,2.32,0.00,24.20,27.30,30.24,4.66,27.31,1004.37,2031.99,2573.17,2689.26,2910.46,349.59,341.67,9.04,0000 0000 0000 0000 000000
2015-02-14 10:57:12,0.13,2.32,0.00,24.24,27.30,30.22,4.70,27.42,1003.98,2031.99,2571.77,2688.49,2909.69,349.84,341.68,9.07,0000 0000 0000 0000 000000
2015-02-14 11:02:13,0.07,2.32,0.00,23.95,27.30,30.18,4.65,27.39,1003.95,2031.99,2570.81,2687.82,2908.88,349.72,341.99,9.10,0000 0000 0000 0000 000000
2015-02-14 11:07:14,0.11,2.33,0.00,23.62,27.30,30.25,4.69,27.40,1003.92,2031.99,2569.82,2687.05,2908.04,350.16,342.79,9.13,0000 0000 0000 0000 000000
2015-02-14 11:12:15,0.12,2.33,0.00,23.54,27.30,30.30,4.71,27.45,1003.93,2031.99,2568.84,2686.40,2907.19,350.01,342.66,9.16,0000 0000 0000 0000 000000
2015-02-14 11:17:16,0.10,2.33,0.00,23.86,27.30,30.20,4.75,27.39,1003.95,2031.99,2567.59,2685.82,2906.58,350.32,342.69,9.19,0000 0000 0000 0000 000000
2015-02-14 11:22:17,0.06,2.34,0.00,24.13,27.28,30.18,4.72,27.43,1004.25,2031.99,2566.99,2685.05,2905.85,349.61,341.75,9.22,0000 0000 0000 0000 000000
2015-02-14 11:27:18,0.11,2.34,0.00,24.19,27.27,30.17,4.64,27.29,1004.31,2031.99,2566.05,2684.51,2905.05,349.68,341.83,9.25,0000 0000 0000 0000 000000
2015-02-14 11:32:20,0.08,2.34,0.00,24.27,27.27,30.12,4.72,27.38,1004.31,2031.99,2564.93,2683.89,2904.31,350.21,342.21,9.28,0000 0000 0000 0000 000000
2015-02-14 11:37:21,0.11,2.35,0.00,24.24,27.27,30.17,4.66,27.50,1004.22,2031.99,2563.88,2683.06,2903.68,349.51,341.51,9.31,0000 0000 0000 0000 000000
2015-02-14 11:42:22,0.12,2.35,0.00,24.22,27.27,30.19,4.68,27.37,1003.96,2031.99,2562.74,2682.22,2902.89,350.05,341.72,9.33,0000 0000 0000 0000 000000
2015-02-14 11:47:23,0.09,2.35,0.00,24.21,27.27,30.22,4.69,27.38,1003.94,2031.99,2561.74,2681.74,2902.06,349.48,341.44,9.36,0000 0000 0000 0000 000000
2015-02-14 11:52:25,0.09,2.36,0.00,23.94,27.27,30.23,4.67,27.52,1003.92,2031.99,2560.89,2681.03,2901.39,349.83,342.10,9.39,0000 0000 0000 0000 000000
2015-02-14 11:57:26,0.12,2.36,0.00,23.62,27.27,30.24,4.67,27.42,1003.92,2031.99,2559.90,2680.30,2900.57,349.91,342.45,9.42,0000 0000 0000 0000 000000
2015-02-14 12:02:27,0.07,2.36,0.00,23.59,27.27,30.26,4.70,27.46,1003.92,2031.99,2559.04,2679.73,2899.89,349.61,342.22,9.45,0000 0000 0000 0000 000000
2015-02-14 12:07:28,0.07,2.36,0.00,23.91,27.27,30.17,4.71,27.52,1003.92,2031.99,2558.78,2679.03,2899.07,350.11,342.31,9.48,0000 0000 0000 0000 000000
2015-02-14 12:12:29,0.13,2.37,0.00,24.12,27.27,30.15,4.76,27.28,1003.92,2031.99,2557.78,2678.38,2898.30,350.28,342.37,9.51,0000 0000 0000 0000 000000
2015-02-14 12:17:30,0.11,2.37,0.00,24.25,27.27,30.14,4.67,27.39,1003.92,2031.99,2556.58,2677.68,2897.58,349.94,341.85,9.54,0000 0000 0000 0000 000000
2015-02-14 12:22:31,0.07,2.37,0.00,24.24,27.27,30.13,4.68,27.47,1003.92,2031.99,2555.57,2677.02,2896.96,349.99,341.86,9.57,0000 0000 0000 0000 000000
2015-02-14 12:27:33,0.12,2.38,0.00,24.24,27.27,30.16,4.71,27.57,1003.91,2031.99,2554.49,2676.30,2896.16,349.92,341.83,9.60,0000 0000 0000 0000 000000
2015-02-14 12:32:34,0.05,2.38,0.00,24.26,27.27,30.19,4.73,27.39,1003.76,2031.99,2553.67,2675.90,2895.79,350.19,342.19,9.63,0000 0000 0000 0000 000000
2015-02-14 12:37:35,0.08,2.38,0.00,24.21,27.27,30.22,4.69,27.44,1003.63,2031.99,2552.94,2675.13,2895.05,350.14,341.74,9.66,0000 0000 0000 0000 000000
2015-02-14 12:42:37,0.07,2.38,0.00,24.22,27.27,30.23,4.71,27.48,1003.67,2031.99,2552.08,2674.88,2894.49,349.92,341.94,9.69,0000 0000 0000 0000 000000
2015-02-14 12:47:38,0.05,2.39,0.00,24.19,27.27,30.24,4.68,27.35,1003.75,2031.99,2551.95,2674.26,2894.01,349.90,341.82,9.72,0000 0000 0000 0000 000000
2015-02-14 12:52:39,0.05,2.39,0.00,24.11,27.27,30.21,4.71,27.32,1003.58,2031.99,2551.16,2674.00,2893.78,349.96,341.70,9.74,0000 0000 0000 0000 000000
2015-02-14 12:57:40,0.10,2.39,0.00,24.12,27.28,30.18,4.67,27.54,1003.50,2032.00,2550.42,2673.49,2893.04,350.12,342.14,9.77,0000 0000 0000 0000 000000
2015-02-14 13:02:42,0.03,2.39,0.00,24.14,27.29,30.19,4.69,27.43,1003.57,2032.00,2549.81,2673.01,2892.78,350.14,341.98,9.80,0000 0000 0000 0000 000000
2015-02-14 13:07:43,0.08,2.39,0.00,24.10,27.30,30.13,4.69,27.52,1003.85,2032.00,2549.04,2672.66,2892.07,349.95,342.00,9.83,0000 0000 0000 0000 000000